GW4068 Weather Reports


Display with metric or nautical units.
time (UTC)temp
F
wind
direction
speed
MPH
gust
MPH
rain 1hr
in
rain 24hr
in
rain mn
in
humidity
%
barometer
mb
20260506091009 57 234 0.0 0.0 0.03 0.09 0.03 88 1007.3
20260506090503 57 234 0.0 0.0 0.02 0.08 0.02 88 1007.4
20260506090008 58 153 0.0 0.0 0.02 0.08 0.02 87 1007.4
20260506085504 58 153 0.0 1.0 0.02 0.08 0.02 86 1007.4
20260506085004 58 153 0.0 1.0 0.02 0.08 0.02 85 1007.4
20260506084528 58 324 0.0 0.0 0.02 0.08 0.02 83 1007.4
20260506084007 59 326 0.0 0.0 0.01 0.07 0.01 82 1007.4
20260506083507 59 326 0.0 0.0 0.01 0.07 0.01 82 1007.5
20260506083016 59 326 0.0 0.0 0.00 0.06 0.00 81 1007.6
20260506082513 59 323 0.0 0.0 0.00 0.06 0.00 82 1007.6
20260506082008 60 321 0.0 0.0 0.00 0.06 0.00 79 1007.5
20260506081520 60 296 0.0 0.0 0.00 0.06 0.00 79 1007.5
20260506081009 60 296 0.0 0.0 0.00 0.06 0.00 80 1007.4
20260506080510 60 296 0.0 0.0 0.00 0.06 0.00 78 1007.4
20260506073506 61 272 0.0 0.0 0.00 0.06 0.00 75 1007.5
20260506073009 61 326 0.0 0.0 0.00 0.06 0.00 75 1007.4
20260506072507 60 326 0.0 0.0 0.00 0.06 0.00 76 1007.4
20260506072010 59 326 0.0 0.0 0.00 0.06 0.00 78 1007.4
20260506071519 58 326 0.0 1.0 0.00 0.06 0.00 81 1007.3
20260506071012 58 326 0.0 1.0 0.00 0.06 0.00 84 1007.4
20260506070509 58 204 0.0 1.0 0.00 0.06 0.00 84 1007.5
20260506062505 58 210 0.0 0.0 0.00 0.06 0.00 85 1007.8
20260506062007 57 210 0.0 0.0 0.00 0.06 0.00 85 1007.7
20260506061529 57 160 0.0 1.0 0.00 0.06 0.00 84 1007.8
20260506061008 58 152 0.0 1.0 0.00 0.06 0.00 84 1007.8
20260506060508 58 115 0.0 1.0 0.00 0.06 0.00 84 1007.9
20260506051009 57 167 0.0 2.0 0.00 0.06 0.00 84 1008.5
20260506050513 57 274 0.0 0.0 0.00 0.06 0.00 84 1008.5
20260506045007 57 274 0.0 1.0 0.00 0.06 0.00 83 1008.5
20260506044505 57 274 0.0 1.0 0.00 0.06 0.00 83 1008.5
20260506044003 58 274 0.0 1.0 0.00 0.06 0.00 82 1008.6
20260506043505 58 276 0.0 1.0 0.00 0.06 0.00 81 1008.4
20260506043006 58 276 0.0 1.0 0.00 0.06 0.00 80 1008.6
20260506042507 59 276 0.0 0.0 0.00 0.06 0.00 79 1008.6
20260506042006 59 276 0.0 0.0 0.00 0.06 0.00 78 1008.6
20260506041506 59 276 0.0 0.0 0.00 0.06 0.00 78 1008.6
20260506041006 59 276 0.0 0.0 0.00 0.06 0.00 78 1008.5
20260506040507 59 276 0.0 0.0 0.00 0.06 0.00 77 1008.4
20260506040036 59 276 0.0 0.0 0.00 0.06 0.00 77 1008.3
20260506035507 59 276 0.0 0.0 0.00 0.06 0.06 77 1008.3
20260506035008 59 276 0.0 0.0 0.00 0.06 0.06 77 1008.4
20260506034518 59 276 0.0 0.0 0.00 0.06 0.06 78 1008.6
20260506034007 59 276 0.0 0.0 0.00 0.06 0.06 78 1008.6
20260506033503 59 276 0.0 0.0 0.00 0.06 0.06 78 1008.7
20260506033005 59 276 0.0 0.0 0.00 0.06 0.06 78 1008.7
20260506032503 59 276 0.0 0.0 0.00 0.06 0.06 78 1008.6
20260506032004 59 276 0.0 0.0 0.00 0.06 0.06 78 1008.6
20260506031514 59 276 0.0 0.0 0.00 0.06 0.06 78 1008.7
20260506031008 59 276 0.0 0.0 0.00 0.06 0.06 79 1008.7
20260506030506 59 276 0.0 0.0 0.00 0.06 0.06 78 1008.7
20260506030028 60 276 0.0 0.0 0.00 0.06 0.06 76 1008.7
20260506025507 60 276 0.0 1.0 0.00 0.06 0.06 74 1008.7
20260506025007 61 276 0.0 1.0 0.00 0.06 0.06 73 1008.7
20260506024519 62 276 0.0 0.0 0.00 0.06 0.06 72 1008.6
20260506024010 62 276 0.0 0.0 0.00 0.06 0.06 70 1008.7
20260506023511 62 276 0.0 1.0 0.00 0.06 0.06 70 1008.7
20260506023020 63 276 0.0 1.0 0.00 0.06 0.06 69 1008.7
20260506022508 63 276 0.0 1.0 0.00 0.06 0.06 69 1008.7
20260506022010 63 276 0.0 1.0 0.00 0.06 0.06 68 1008.7
20260506021506 64 276 0.0 1.0 0.00 0.06 0.06 68 1008.7
20260506021003 64 276 0.0 1.0 0.00 0.06 0.06 67 1008.7
20260506020511 64 276 0.0 1.0 0.00 0.06 0.06 67 1008.8
20260506020006 64 276 0.0 1.0 0.00 0.06 0.06 66 1008.8
20260506015505 64 276 0.0 1.0 0.00 0.06 0.06 66 1008.8
20260506015004 64 276 0.0 1.0 0.00 0.06 0.06 66 1008.8
20260506014513 64 276 0.0 1.0 0.00 0.06 0.06 66 1008.7
20260506014006 64 276 0.0 0.0 0.00 0.06 0.06 65 1008.6
20260506013509 65 276 0.0 0.0 0.00 0.06 0.06 64 1008.6
20260506013026 65 276 0.0 0.0 0.00 0.06 0.06 64 1008.5
20260506012510 65 276 0.0 2.0 0.00 0.06 0.06 64 1008.5
20260506012011 65 276 0.0 2.0 0.00 0.06 0.06 64 1008.4
20260506011520 66 272 0.0 1.0 0.00 0.06 0.06 64 1008.4
20260506011006 66 271 0.0 1.0 0.00 0.06 0.06 63 1008.3
20260506010510 66 271 0.0 1.0 0.00 0.06 0.06 62 1008.4
20260506010011 66 271 0.0 1.0 0.00 0.06 0.06 62 1008.4
20260506005503 66 271 0.0 1.0 0.00 0.06 0.06 61 1008.2
20260506005006 66 272 0.0 1.0 0.00 0.06 0.06 64 1008.2
20260506004511 66 272 0.0 1.0 0.00 0.06 0.06 64 1008.2
20260506004011 67 271 0.0 1.0 0.00 0.06 0.06 60 1008.1
20260506003507 67 272 0.0 1.0 0.00 0.06 0.06 60 1008.1
20260506003015 67 271 0.0 0.0 0.00 0.06 0.06 60 1008.0
20260506002507 67 271 0.0 0.0 0.00 0.06 0.06 59 1007.9
20260506002008 68 271 0.0 1.0 0.00 0.06 0.06 59 1007.8
20260506001516 68 272 0.0 1.0 0.00 0.06 0.06 58 1007.8
20260506001009 68 272 0.0 0.0 0.00 0.06 0.06 58 1007.8
20260506000508 68 272 0.0 1.0 0.00 0.06 0.06 57 1007.8
20260506000023 68 272 0.0 1.0 0.00 0.06 0.06 57 1007.7
20260505235507 69 271 0.0 1.0 0.00 0.06 0.06 57 1007.6
20260505235012 69 271 0.0 1.0 0.00 0.06 0.06 58 1007.6
20260505234530 69 272 0.0 1.0 0.00 0.06 0.06 57 1007.6
20260505234003 69 271 0.0 1.0 0.00 0.06 0.06 57 1007.6
20260505233504 70 304 0.0 1.0 0.00 0.06 0.06 56 1007.6
20260505233008 70 304 0.0 1.0 0.00 0.06 0.06 57 1007.6
20260505232509 70 330 0.0 1.0 0.00 0.06 0.06 56 1007.5
20260505232010 70 320 0.0 1.0 0.00 0.06 0.06 55 1007.5
20260505231518 70 231 0.0 1.0 0.00 0.06 0.06 56 1007.5
20260505231006 70 231 0.0 1.0 0.00 0.06 0.06 56 1007.5
20260505230507 71 231 0.0 1.0 0.00 0.06 0.06 57 1007.5
20260505230027 71 226 1.0 1.0 0.00 0.06 0.06 55 1007.4
20260505225518 72 157 0.0 0.0 0.00 0.06 0.06 51 1007.3
20260505225009 72 156 0.0 1.0 0.00 0.06 0.06 51 1007.3
20260505224526 73 156 0.0 3.0 0.00 0.06 0.06 51 1007.4
20260505224011 73 209 0.0 3.0 0.00 0.06 0.06 48 1007.4
20260505223512 73 174 0.0 3.0 0.00 0.06 0.06 48 1007.3
20260505223024 73 327 0.0 5.0 0.00 0.06 0.06 48 1007.3
20260505222506 73 287 2.0 6.0 0.00 0.06 0.06 49 1007.4
20260505222008 73 2 2.0 6.0 0.00 0.06 0.06 47 1007.4
20260505221513 74 167 2.0 8.0 0.00 0.06 0.06 46 1007.6
20260505221006 74 241 2.0 8.0 0.00 0.06 0.06 45 1007.5
20260505220507 75 285 2.0 8.0 0.00 0.06 0.06 47 1007.6
20260505220019 75 336 3.0 7.0 0.00 0.06 0.06 45 1007.4
20260505215510 75 78 2.0 7.0 0.00 0.06 0.06 48 1007.3
20260505215008 76 306 1.0 6.0 0.00 0.06 0.06 48 1007.3
20260505214523 76 25 2.0 5.0 0.00 0.06 0.06 45 1007.1
20260505214007 77 359 0.0 3.0 0.00 0.06 0.06 44 1007.1
20260505213508 77 117 1.0 3.0 0.00 0.06 0.06 40 1006.9
20260505213025 78 37 0.0 2.0 0.00 0.06 0.06 44 1006.8
20260505212513 78 70 1.0 2.0 0.00 0.06 0.06 39 1006.6
20260505212013 78 154 0.0 5.0 0.00 0.06 0.06 39 1006.7
20260505211526 78 326 1.0 5.0 0.00 0.06 0.06 42 1006.8
20260505211010 78 110 2.0 5.0 0.00 0.06 0.06 37 1006.8
20260505210508 78 292 2.0 5.0 0.00 0.06 0.06 41 1006.8
20260505210023 78 158 1.0 5.0 0.00 0.06 0.06 39 1006.8
20260505205512 77 41 0.0 4.0 0.00 0.06 0.06 38 1006.7
20260505205011 77 49 0.0 4.0 0.00 0.06 0.06 38 1006.7
20260505204518 77 250 2.0 7.0 0.00 0.06 0.06 38 1006.7
20260505204007 76 131 2.0 7.0 0.00 0.06 0.06 39 1006.7
20260505203502 76 281 3.0 11.0 0.00 0.06 0.06 39 1006.7
20260505203004 76 165 4.0 15.0 0.00 0.06 0.06 39 1006.8
20260505202504 77 340 4.0 15.0 0.00 0.06 0.06 37 1006.7
20260505202002 77 205 2.0 8.0 0.00 0.06 0.06 38 1006.6
20260505201506 78 212 2.0 8.0 0.00 0.06 0.06 39 1006.3
20260505201005 78 219 2.0 4.0 0.00 0.06 0.06 35 1006.2
20260505200504 78 81 0.0 6.0 0.00 0.06 0.06 36 1006.3
20260505200009 78 251 2.0 8.0 0.00 0.06 0.06 37 1006.4
20260505195504 78 90 4.0 9.0 0.00 0.06 0.06 35 1006.4
20260505195002 78 231 4.0 11.0 0.00 0.06 0.06 36 1006.3
20260505194506 78 198 3.0 11.0 0.00 0.06 0.06 36 1006.3
20260505194006 78 259 4.0 10.0 0.00 0.06 0.06 35 1006.3
20260505193504 78 204 5.0 11.0 0.00 0.06 0.06 36 1006.3
20260505193004 79 229 6.0 11.0 0.00 0.06 0.06 35 1006.3
20260505192504 79 194 5.0 8.0 0.00 0.06 0.06 36 1006.3
20260505192003 80 171 5.0 11.0 0.00 0.06 0.06 37 1006.2
20260505191506 79 199 5.0 12.0 0.00 0.06 0.06 38 1006.2
20260505191006 80 226 6.0 12.0 0.00 0.06 0.06 39 1006.2
20260505190503 79 178 6.0 11.0 0.00 0.06 0.06 40 1006.1
20260505190006 79 147 5.0 13.0 0.00 0.06 0.06 38 1006.1
20260505185503 78 196 5.0 13.0 0.00 0.06 0.06 38 1006.1
20260505185006 79 187 8.0 13.0 0.00 0.06 0.06 36 1006.2
20260505184507 79 198 7.0 13.0 0.00 0.06 0.06 37 1006.4
20260505184005 79 209 6.0 10.0 0.00 0.06 0.06 37 1006.4
20260505183504 79 191 6.0 13.0 0.00 0.06 0.06 37 1006.6
20260505183004 80 177 5.0 13.0 0.00 0.06 0.06 39 1006.7
20260505182503 80 198 6.0 12.0 0.00 0.06 0.06 38 1006.6
20260505182004 80 190 7.0 20.0 0.00 0.06 0.06 39 1006.6
20260505181506 80 195 10.0 20.0 0.00 0.06 0.06 37 1006.7
20260505181004 81 198 6.0 11.0 0.00 0.06 0.06 39 1006.8
20260505180502 80 207 6.0 12.0 0.00 0.06 0.06 39 1006.9
20260505180010 80 230 8.0 12.0 0.00 0.06 0.06 40 1006.9
20260505175504 80 188 5.0 14.0 0.00 0.06 0.06 41 1007.1
20260505175004 80 179 6.0 14.0 0.00 0.06 0.06 41 1007.2
20260505174508 80 198 6.0 14.0 0.00 0.06 0.06 42 1007.3
20260505174005 80 181 4.0 8.0 0.00 0.06 0.06 46 1007.5
20260505173505 79 195 3.0 8.0 0.00 0.06 0.06 47 1007.6
20260505173010 78 195 4.0 11.0 0.00 0.06 0.06 44 1007.6
20260505172504 78 195 4.0 11.0 0.00 0.06 0.06 45 1007.5
20260505172007 78 130 6.0 11.0 0.00 0.06 0.06 47 1007.4
20260505171518 78 209 5.0 8.0 0.00 0.06 0.06 45 1007.5
20260505171004 78 180 4.0 8.0 0.00 0.06 0.06 47 1007.5
20260505170505 78 196 5.0 8.0 0.00 0.06 0.06 44 1007.5
20260505170014 78 227 4.0 7.0 0.00 0.06 0.06 48 1007.6
20260505165504 77 148 2.0 8.0 0.00 0.06 0.06 45 1007.6
20260505165006 77 224 4.0 11.0 0.00 0.06 0.06 46 1007.6
20260505164509 77 169 4.0 13.0 0.00 0.06 0.06 45 1007.6
20260505164004 78 225 7.0 13.0 0.00 0.06 0.06 44 1007.7
20260505163504 78 207 5.0 10.0 0.00 0.06 0.06 46 1007.7
20260505163010 78 214 2.0 9.0 0.00 0.06 0.06 46 1007.8
20260505162503 78 221 3.0 9.0 0.00 0.06 0.06 46 1008.0
20260505162005 78 224 4.0 12.0 0.00 0.06 0.06 47 1008.0
20260505161510 78 180 4.0 12.0 0.00 0.06 0.06 46 1008.1
20260505161005 78 257 4.0 9.0 0.00 0.06 0.06 48 1008.2
20260505160507 77 184 4.0 9.0 0.00 0.06 0.06 52 1008.3
20260505153007 74 177 5.0 9.0 0.00 0.06 0.06 52 1008.7
20260505152504 75 155 4.0 7.0 0.00 0.06 0.06 55 1008.6
20260505152008 75 149 4.0 9.0 0.00 0.06 0.06 53 1008.8
20260505151510 75 159 6.0 9.0 0.00 0.06 0.06 51 1008.7
20260505151009 75 193 5.0 7.0 0.00 0.06 0.06 54 1008.7
20260505150507 74 135 4.0 8.0 0.00 0.06 0.06 57 1008.7
20260505140507 70 206 1.0 3.0 0.00 0.06 0.06 68 1009.1
20260505125008 56 259 0.0 1.0 0.04 0.06 0.06 90 1009.8
20260505124518 56 290 0.0 2.0 0.04 0.06 0.06 90 1009.7
20260505124006 56 266 0.0 2.0 0.04 0.06 0.06 90 1009.9
20260505123507 56 225 0.0 2.0 0.04 0.06 0.06 89 1009.9
20260505123017 56 224 0.0 2.0 0.04 0.06 0.06 89 1009.9
20260505122507 56 164 1.0 3.0 0.04 0.06 0.06 88 1009.9
20260505122007 57 10 0.0 3.0 0.03 0.05 0.05 88 1010.2
20260505121519 57 359 0.0 2.0 0.01 0.03 0.03 89 1010.8
20260505121008 56 347 0.0 2.0 0.01 0.03 0.03 89 1010.2
20260505120513 56 275 0.0 2.0 0.00 0.02 0.02 89 1010.2
20260505120019 56 266 0.0 2.0 0.00 0.02 0.02 88 1010.1
20260505115508 56 214 0.0 0.0 0.00 0.02 0.02 87 1010.3
20260505115011 56 214 0.0 0.0 0.00 0.02 0.02 86 1010.1
20260505114516 56 126 0.0 0.0 0.00 0.02 0.02 87 1010.0
20260505114013 56 125 0.0 0.0 0.00 0.02 0.02 88 1009.7
20260505113504 55 125 0.0 0.0 0.00 0.02 0.02 88 1009.5
20260505113007 55 125 0.0 0.0 0.00 0.02 0.02 88 1009.4
20260505112507 55 126 0.0 0.0 0.00 0.02 0.02 89 1009.3
20260505112003 55 125 0.0 0.0 0.00 0.02 0.02 89 1009.4
20260505111511 55 126 0.0 0.0 0.00 0.02 0.02 89 1009.3
20260505111003 55 247 0.0 0.0 0.00 0.02 0.02 90 1009.2
20260505110504 55 247 0.0 0.0 0.00 0.02 0.02 90 1009.2
20260505102007 54 278 0.0 0.0 0.02 0.02 0.02 89 1009.1
20260505101512 54 278 0.0 0.0 0.02 0.02 0.02 88 1009.3
20260505101007 54 278 0.0 0.0 0.02 0.02 0.02 88 1009.3
20260505100504 54 279 0.0 0.0 0.02 0.02 0.02 88 1009.3
20260505100003 54 329 0.0 0.0 0.02 0.02 0.02 88 1009.2
20260505095501 53 286 0.0 0.0 0.02 0.02 0.02 88 1009.1
20260505095003 53 278 0.0 0.0 0.02 0.02 0.02 88 1009.2
20260505094508 54 274 0.0 2.0 0.02 0.02 0.02 88 1008.9
20260505094006 54 281 0.0 2.0 0.02 0.02 0.02 87 1008.7
20260505093505 54 275 0.0 3.0 0.02 0.02 0.02 87 1008.7
20260505093012 54 260 0.0 3.0 0.02 0.02 0.02 84 1008.6
20260505092507 54 305 0.0 2.0 0.02 0.02 0.02 81 1008.1
20260505092007 54 259 0.0 2.0 0.00 0.00 0.00 79 1008.8
20260505091514 54 258 1.0 2.0 0.00 0.00 0.00 78 1008.6